Jefferson City, MO

3:29 AM CDT on May 23, 2017 (GMT -0500)
Jefferson City Memorial

Weather History for KJEF - March, 2014

Change the Weather History Date:

Tuesday, March 18, 2014

  Actual Average Record
Temperature  
Mean Temperature 50 °F -  
Max Temperature 64 °F 58 °F 79 °F (1989)
Min Temperature 36 °F 34 °F 13 °F (1941)
Degree Days  
Heating Degree Days 15    
Moisture  
Dew Point 33 °F    
Average Humidity 54    
Maximum Humidity 79    
Minimum Humidity 30    
Precipitation  
Precipitation 0.01 in - - ()
Sea Level Pressure  
Sea Level Pressure 29.60 in    
Wind  
Wind Speed 12 mph (SE)    
Max Wind Speed 26 mph    
Max Gust Speed 34 mph    
Visibility 10 miles    
Events Rain , Thunderstorm    
Averages and records for this station are not official NWS values.
T = Trace of Precipitation, MM = Missing Value Source: NWS Daily Summary

Daily Weather History Graph

Daily Weather History Graph

Search for Another Location

Airport or City:

Trip Planner

Search our weather history database for the weather conditions in past years. The results will help you decide how hot, cold, wet, or windy it might be!

Date:

Astronomy

Mar. 18, 2014 Rise Set
Actual Time 7:15 AM CDT 7:18 PM CDT
Civil Twilight 6:48 AM CDT 7:45 PM CDT
Nautical Twilight 6:17 AM CDT 8:16 PM CDT
Astronomical Twilight 5:46 AM CDT 8:47 PM CDT
Moon 9:34 PM CDT (3/18) 8:06 AM CDT (3/18)
Length of Visible Light 12h 56m
Length of Day
12h 03m
Waning Gibbous, 96% of the Moon is Illuminated
Mar 18
Waning Gibbous
Mar 23
Last Quarter
Mar 30
New
Apr 7
First Quarter
Apr 15
Full

Hourly Weather History & Observations

Time (CDT) Temp. Windchill Dew Point Humidity Pressure Visibility Wind Dir Wind Speed Gust Speed Precip Events Conditions
12:53 AM 36.0 °F 30.3 °F 21.9 °F 57% 29.72 in 10.0 mi ESE 6.9 mph - N/A   Clear
1:53 AM 39.9 °F 33.9 °F 23.0 °F 51% 29.71 in 10.0 mi ESE 9.2 mph - N/A   Clear
2:53 AM 39.9 °F 33.9 °F 26.1 °F 58% 29.70 in 10.0 mi ESE 9.2 mph - N/A   Clear
3:53 AM 39.0 °F 32.8 °F 28.9 °F 67% 29.68 in 10.0 mi ESE 9.2 mph - N/A   Clear
4:53 AM 39.0 °F 31.4 °F 30.9 °F 73% 29.67 in 10.0 mi ESE 12.7 mph - N/A   Clear
5:53 AM 37.9 °F 30.5 °F 32.0 °F 79% 29.65 in 10.0 mi ESE 11.5 mph - N/A   Clear
6:53 AM 39.0 °F 31.4 °F 32.0 °F 76% 29.66 in 10.0 mi ESE 12.7 mph - N/A   Clear
7:53 AM 37.9 °F 31.5 °F 32.0 °F 79% 29.67 in 10.0 mi ESE 9.2 mph - N/A   Clear
8:53 AM 42.1 °F 34.9 °F 33.1 °F 70% 29.66 in 10.0 mi ESE 13.8 mph - N/A   Clear
9:53 AM 46.0 °F 39.6 °F 33.1 °F 61% 29.65 in 10.0 mi SE 15.0 mph - N/A   Clear
10:53 AM 51.1 °F - 33.1 °F 50% 29.63 in 10.0 mi SSE 20.7 mph 26.5 mph N/A   Clear
11:53 AM 55.0 °F - 32.0 °F 42% 29.59 in 10.0 mi SSE 17.3 mph 31.1 mph N/A   Clear
12:53 PM 59.0 °F - 32.0 °F 36% 29.56 in 10.0 mi SSE 23.0 mph 32.2 mph N/A   Clear
1:53 PM 61.0 °F - 32.0 °F 34% 29.52 in 10.0 mi SSE 21.9 mph 29.9 mph N/A   Clear
2:53 PM 63.0 °F - 32.0 °F 31% 29.48 in 10.0 mi SE 26.5 mph 34.5 mph N/A   Clear
3:53 PM 64.0 °F - 32.0 °F 30% 29.49 in 10.0 mi South 23.0 mph 26.5 mph N/A   Clear
4:53 PM 64.0 °F - 34.0 °F 33% 29.49 in 10.0 mi South 15.0 mph 23.0 mph N/A   Partly Cloudy
5:53 PM 62.1 °F - 35.1 °F 37% 29.51 in 10.0 mi South 15.0 mph - N/A   Mostly Cloudy
6:53 PM 61.0 °F - 35.1 °F 38% 29.52 in 10.0 mi SSE 10.4 mph - N/A   Overcast
7:53 PM 59.0 °F - 36.0 °F 42% 29.53 in 10.0 mi SSE 15.0 mph - N/A   Scattered Clouds
8:53 PM 55.9 °F - 37.0 °F 49% 29.56 in 10.0 mi SE 11.5 mph - N/A   Partly Cloudy
9:53 PM 55.9 °F - 39.0 °F 53% 29.59 in 10.0 mi Calm Calm - 0.00 in Rain Light Rain
10:38 PM 53.6 °F - 39.2 °F 58% 29.61 in 10.0 mi ESE 3.5 mph - 0.00 in Rain , Thunderstorm Light Rain
10:53 PM 53.1 °F - 41.0 °F 64% 29.58 in 10.0 mi SSE 9.2 mph - 0.01 in Rain , Thunderstorm Light Thunderstorms and Rain
11:10 PM 51.8 °F - 42.8 °F 71% 29.62 in 10.0 mi SSE 5.8 mph - 0.00 in   Overcast
11:53 PM 51.1 °F - 43.0 °F 74% 29.61 in 10.0 mi South 3.5 mph - 0.00 in   Mostly Cloudy